Hourly Data Report for February 23, 2019

TORONTO INTL A
ONTARIO
Current Station Operator: NAVCAN

43°40'36.000" N
79°37'50.000" W
173.40 m
6158731
71624
YYZ

Download Data

Hourly Data (February 2019)
Hourly Data Report for February 23, 2019
TIME
LST
Temp Definition
°C
Dew Point Definition
°C
Rel Hum Definition
%
Precip. Amount Definition
mm

Wind Dir Definition
10's deg

Wind Spd Definition
km/h
Visibility Definition
km
Stn Press Definition
kPa
Hmdx Definition


Wind Chill Definition


Weather Definition


00:00 -1.9 -7.0 69   2 3 24.1 101.02   -3 LegendNANA
01:00 -3.3 -7.8 72   2 9 24.1 101.06   -7 Clear
02:00 -4.2 -8.2 74   35 9 24.1 101.03   -8 LegendNANA
03:00 -5.1 -8.6 77   2 13 24.1 100.97   -10 LegendNANA
04:00 -5.1 -8.2 79   3 11 24.1 100.92   -10 Clear
05:00 -4.3 -7.5 78   5 8 24.1 100.90   -8 LegendNANA
06:00 -4.2 -7.5 77   4 10 24.1 100.91   -8 LegendNANA
07:00 -3.8 -7.3 77   5 9 24.1 100.86   -8 Mostly Cloudy
08:00 -2.6 -6.1 77   6 11 24.1 100.71   -7 LegendNANA
09:00 -1.4 -4.9 78   8 9 24.1 100.72   -5 LegendNANA
10:00 -0.1 -3.5 78   7 14 24.1 100.69   -4 Cloudy
11:00 1.0 -3.3 73   10 17 24.1 100.60     LegendNANA
12:00 1.6 -3.9 67   7 23 24.1 100.44     LegendNANA
13:00 1.4 -4.4 65   9 23 24.1 100.31     Mostly Cloudy
14:00 1.9 -4.4 63   9 24 24.1 100.18     LegendNANA
15:00 1.5 -4.5 64   8 26 24.1 100.06     LegendNANA
16:00 1.0 -4.2 69   10 22 24.1 99.94     Mainly Clear
17:00 0.4 -4.3 71   8 26 24.1 99.93     LegendNANA
18:00 0.4 -3.9 73   9 19 24.1 99.84     LegendNANA
19:00 0.7 -3.3 74   9 14 24.1 99.74     Mostly Cloudy
20:00 0.8 -3.2 75   9 16 24.1 99.60     LegendNANA
21:00 1.1 -2.7 76   9 20 24.1 99.42     LegendNANA
22:00 1.4 -2.2 77   10 16 24.1 99.28     Cloudy
23:00 1.7 -1.5 79   9 14 24.1 99.09     LegendNANA

Notes on Data Quality.

Legend

  • E = Estimated
  • M = Missing
  • NA = Not Available*
  • [empty] = Indicates an unobserved value
Date modified: